JP7FSO Weather Reports


time (UTC)temp
C
wind
direction
speed
KPH
gust
KPH
rain 1hr
cm
rain 24hr
cm
rain mn
cm
humidity
%
barometer
mb
20260504224504 13 280 0.0 0.0 0.00 0.00 0.13 60 1010.1
20260504223013 12 287 0.0 0.0 0.00 0.00 0.13 60 1009.7
20260504221529 12 257 1.6 0.0 0.00 0.00 0.13 62 1009.5
20260504220100 11 242 1.6 0.0 0.00 0.00 0.13 64 1009.4
20260504214515 10 321 1.6 0.0 0.00 0.00 0.13 67 1009.0
20260504213112 10 268 4.8 0.0 0.00 0.00 0.13 69 1008.9
20260504211533 9 300 4.8 0.0 0.00 0.00 0.13 71 1009.0
20260504210106 9 274 4.8 0.0 0.00 0.00 0.13 71 1008.6
20260504204604 9 289 3.2 0.0 0.00 0.00 0.13 73 1008.2
20260504203029 8 297 3.2 0.0 0.00 0.00 0.13 76 1008.1
20260504201514 8 330 3.2 0.0 0.00 0.00 0.13 78 1008.0
20260504200004 8 279 1.6 0.0 0.00 0.00 0.13 78 1007.8
20260504194517 7 279 0.0 0.0 0.00 0.00 0.13 78 1007.6
20260504193027 8 269 0.0 0.0 0.00 0.00 0.13 76 1007.6
20260504191528 8 276 0.0 0.0 0.00 0.00 0.13 75 1007.3
20260504190029 8 358 3.2 0.0 0.00 0.00 0.10 74 1007.3
20260504184507 8 262 6.4 0.0 0.00 0.00 0.08 70 1006.4
20260504183005 9 296 6.4 0.0 0.00 0.00 0.05 65 1005.9
20260504180034 9 282 1.6 0.0 0.00 0.00 0.03 67 1005.7
20260504174508 9 274 1.6 0.0 0.00 0.00 0.03 67 1005.4
20260504173026 10 274 4.8 0.0 0.00 0.00 0.03 64 1004.9
20260504171525 10 290 3.2 0.0 0.00 0.00 0.03 63 1004.5
20260504140116 10 259 6.4 0.0 0.00 0.00 0.00 60 1000.1
20260504120110 13 241 6.4 0.0 0.00 0.00 0.00 58 997.1
20260504081517 18 207 6.4 0.0 0.00 0.00 0.00 43 991.0
20260504070104 22 245 1.6 0.0 0.00 0.00 0.00 37 990.9
20260504060108 20 273 3.2 0.0 0.00 0.00 0.00 46 990.0
20260504050118 19 275 3.2 0.0 0.00 0.00 0.00 52 990.0
20260504044534 19 245 4.8 0.0 0.00 0.00 0.00 54 989.7
20260504043024 19 182 6.4 0.0 0.00 0.00 0.00 53 989.7
20260504041523 20 265 8.0 0.0 0.00 0.00 0.00 52 990.3
20260504034523 19 282 6.4 0.0 0.00 0.00 0.00 54 990.2
20260504033010 19 165 8.0 0.0 0.00 0.00 0.00 54 990.1
20260504030008 21 278 9.7 0.0 0.00 0.00 0.00 49 989.6
20260504024602 21 302 9.7 0.0 0.00 0.00 0.00 50 989.5
20260504023055 21 338 9.7 0.0 0.00 0.00 0.00 51 989.3
20260504021508 21 265 8.0 0.0 0.00 0.00 0.00 50 989.8
20260504020011 22 276 9.7 0.0 0.00 0.00 0.00 48 989.6
20260504014606 21 257 9.7 0.0 0.00 0.00 0.00 48 989.7
20260504013114 21 323 11.3 0.0 0.00 0.00 0.00 49 989.7
20260504011555 20 291 12.9 0.0 0.00 0.00 0.00 51 989.5
20260504010017 21 303 11.3 0.0 0.00 0.00 0.00 50 989.4
20260504004519 20 4 9.7 0.0 0.00 0.00 0.00 54 989.6
20260504003021 19 290 4.8 0.0 0.00 0.00 0.00 56 989.6
20260504001604 19 342 6.4 0.0 0.00 0.00 0.00 56 989.6
20260503234519 20 294 8.0 0.0 0.00 0.00 0.00 56 989.3
20260503231506 19 245 8.0 0.0 0.00 0.00 0.00 60 989.1
20260503230117 18 227 1.6 0.0 0.00 0.00 0.00 73 989.1